[[{"header":{"parameterUnit":"m.s-1","parameterCategory":1,"la1":30.2991,"la2":30.254,"lo1":-89.0895,"lo2":-89.0444,"dy":0.0017,"dx":0.0017,"nx":28,"ny":28,"refTime":"2024-05-01T03:00:00:Z","depth":0,"parameterNumber":2,"parameterNumberName":"U-component_of_WINDS"},"data":[0,0,0,0,0,0,0,0,0,0,0,0,0,0,0,0,0,0,0,0,0,0,0,0,0,0,0,0,0,0,0,0,0,0,0,0,0,0,0,0,0,0,0,0,0,0,0,0,0,0,0,0,0,0,0,0,0,0,-1.3203,-1.3203,0,-1.3246,-1.3247,-1.3247,-1.3238,-1.3237,-1.3236,-1.3235,-1.3281,-1.3283,-1.3285,0,0,0,0,0,0,0,0,0,0,0,0,0,-1.3114,-1.3116,-1.3203,-1.3203,-1.3204,-1.3246,-1.3247,-1.3247,-1.3238,-1.3237,-1.3236,-1.3235,-1.3281,-1.3283,-1.3285,0,0,0,0,0,0,0,0,0,0,0,0,0,-1.3155,-1.3116,-1.3203,-1.3204,-1.3205,-1.3246,-1.3247,-1.3247,-1.3238,-1.3237,-1.3236,-1.3235,-1.328,-1.3283,-1.3286,-1.3328,0,0,-1.3295,-1.3296,0,0,0,0,0,0,0,0,-1.3152,-1.3158,-1.3203,-1.3204,-1.3205,-1.3235,-1.3232,-1.3275,-1.3238,-1.3226,-1.3235,-1.3234,-1.3267,-1.3271,-1.3282,-1.3331,-1.3333,-1.3295,-1.3297,-1.3298,-1.3299,0,0,0,0,0,0,0,-1.3149,-1.3156,-1.322,-1.3204,-1.3205,-1.3204,-1.3208,-1.324,-1.3253,-1.3227,-1.3226,-1.3231,-1.3267,-1.3279,-1.3283,-1.3333,-1.3295,-1.3298,-1.3299,-1.3301,-1.3421,-1.3422,0,0,0,0,0,0,-1.3146,-1.3154,-1.3219,-1.3221,-1.3175,-1.3206,-1.3211,-1.3227,-1.3252,-1.3255,-1.3232,-1.3231,-1.3275,-1.3279,-1.3284,-1.3337,-1.3298,-1.3301,-1.3303,-1.3419,-1.3421,-1.3422,0,0,0,0,0,0,-1.3144,-1.3152,-1.3217,-1.3187,-1.3196,-1.3209,-1.3227,-1.3228,-1.324,-1.3256,-1.3259,-1.3242,-1.3274,-1.328,-1.3318,-1.3338,-1.3302,-1.3305,-1.3418,-1.342,-1.3422,-1.3441,0,0,0,0,0,0,-1.3141,-1.3151,-1.3167,-1.3188,-1.3197,-1.3249,-1.3228,-1.323,-1.3245,-1.3243,-1.3266,-1.3269,-1.3273,-1.3313,-1.3321,-1.3342,-1.3307,-1.3416,-1.3418,-1.3421,-1.3439,-1.3444,-1.3448,0,0,0,0,0,-1.3138,-1.3171,-1.3168,-1.3175,-1.3217,-1.325,-1.3255,-1.3259,-1.3247,-1.3263,-1.3274,-1.3268,-1.3335,-1.3317,-1.3325,-1.3348,-1.3414,-1.3418,-1.3421,-1.3437,-1.3443,-1.3448,0,0,0,0,0,0,-1.3152,-1.3173,-1.317,-1.321,-1.3228,-1.3248,-1.3269,-1.3266,-1.3288,-1.3286,-1.329,-1.3296,-1.3334,-1.3345,-1.3325,-1.3391,-1.3373,-1.3378,-1.3382,-1.3388,-1.3393,-1.3389,-1.331,0,0,0,0,0,-1.316,-1.3184,-1.3202,-1.3235,-1.3245,-1.3255,-1.327,-1.3272,-1.3291,-1.3298,-1.3312,-1.3331,-1.3356,-1.3373,-1.3397,-1.3441,-1.3446,-1.346,-1.3465,-1.3468,-1.3473,-1.3497,-1.3504,-1.3433,-1.3433,-1.3433,0,0,-1.3176,-1.319,-1.3205,-1.3238,-1.3253,-1.3278,-1.3262,-1.3289,-1.3309,-1.3303,-1.3339,-1.335,-1.3371,-1.3412,-1.3431,-1.3422,-1.3494,-1.3472,-1.3475,-1.3477,-1.3501,-1.3508,-1.3514,-1.3435,-1.3435,-1.3434,0,0,-1.3218,-1.3231,-1.3261,-1.3276,-1.3298,-1.3305,-1.3312,-1.3333,-1.334,-1.3376,-1.3372,-1.3396,-1.3439,-1.3455,-1.3469,-1.3519,-1.3515,-1.3527,-1.3551,-1.3575,-1.358,-1.3585,-1.3604,-1.361,-1.3531,-1.3531,-1.3531,0,-1.3235,-1.3273,-1.3277,-1.3306,-1.3321,-1.3316,-1.3347,-1.3361,-1.339,-1.3401,-1.3391,-1.3446,-1.346,-1.3505,-1.3518,-1.3529,-1.3538,-1.3524,-1.3579,-1.3584,-1.3589,-1.3606,-1.3613,-1.3533,-1.3532,-1.3532,-1.3532,0,-1.3294,-1.332,-1.3342,-1.337,-1.3387,-1.3417,-1.3426,-1.3444,-1.3444,-1.3453,-1.3491,-1.3508,-1.3536,-1.3547,-1.3548,-1.3592,-1.3586,-1.3578,-1.356,-1.3597,-1.3614,-1.362,-1.3535,-1.3534,-1.3534,-1.3533,0,0,-1.3345,-1.3375,-1.3383,-1.3396,-1.342,-1.3441,-1.3471,-1.3498,-1.3514,-1.3534,-1.356,-1.3597,-1.359,-1.3606,-1.3609,-1.363,-1.3669,-1.3619,-1.3619,-1.3627,-1.372,-1.3726,-1.3733,-1.3666,-1.3668,-1.3669,-1.3718,0,-1.339,-1.3441,-1.3446,-1.3493,-1.3519,-1.3515,-1.3542,-1.356,-1.3569,-1.3592,-1.3603,-1.3629,-1.3617,-1.3627,-1.3648,-1.366,-1.3687,-1.3656,-1.3691,-1.3692,-1.3685,-1.3742,-1.3748,-1.3794,-1.3724,-1.3726,-1.3726,0,-1.3448,-1.347,-1.352,-1.3541,-1.3552,-1.3575,-1.3601,-1.3623,-1.3645,-1.365,-1.3668,-1.3669,-1.3701,-1.3682,-1.3726,-1.3705,-1.372,-1.3728,-1.373,-1.3733,-1.3711,-1.3747,-1.3808,-1.3815,-1.3736,-1.3736,-1.3735,0,-1.3481,-1.3523,-1.3558,-1.3569,-1.3595,-1.3612,-1.3624,-1.3644,-1.366,-1.3683,-1.3694,-1.3721,-1.3735,-1.3756,-1.3764,-1.375,-1.3809,-1.379,-1.3814,-1.3814,-1.3826,-1.3825,-1.3891,-1.3836,-1.3836,-1.3836,-1.3836,0,-1.353,-1.356,-1.3573,-1.3595,-1.3629,-1.3635,-1.3669,-1.3681,-1.3699,-1.3723,-1.3722,-1.3745,-1.3755,-1.3779,-1.3786,-1.3822,-1.3829,-1.3835,-1.3836,-1.3834,-1.3834,-1.3844,-1.3841,-1.3838,-1.3837,-1.3837,-1.3837,0,-1.3572,-1.3582,-1.362,-1.3642,-1.3648,-1.3672,-1.3691,-1.3713,-1.3722,-1.3753,-1.3761,-1.3776,-1.3805,-1.3815,-1.3851,-1.3855,-1.3898,-1.3896,-1.389,-1.389,-1.3914,-1.3912,-1.3988,-1.3999,-1.3937,-1.3938,-1.3938,0,-1.3603,-1.3626,-1.365,-1.3666,-1.3679,-1.3705,-1.3722,-1.3729,-1.3747,-1.3773,-1.3792,-1.3821,-1.3844,-1.3892,-1.3906,-1.3934,-1.3933,-1.3958,-1.3937,-1.3935,-1.3934,-1.3932,-1.3935,-1.3962,-1.3963,-1.3963,-1.3964,0,-1.3656,-1.366,-1.3684,-1.371,-1.373,-1.3751,-1.3771,-1.3785,-1.3795,-1.3816,-1.3845,-1.3864,-1.39,-1.393,-1.3958,-1.3971,-1.397,-1.397,-1.3977,-1.3976,-1.3971,-1.3974,-1.3901,-1.3968,-1.3968,-1.3967,-1.3967,-1.3967,-1.3693,-1.3714,-1.3735,-1.3762,-1.3778,-1.3797,-1.3819,-1.3831,-1.3856,-1.3886,-1.3889,-1.3921,-1.3943,-1.3981,-1.3996,-1.4022,-1.4015,-1.4025,-1.4028,-1.403,-1.4032,-1.3968,-1.4027,-1.4027,-1.4027,-1.4027,-1.4027,0,-1.3747,-1.376,-1.3785,-1.3813,-1.3835,-1.3832,-1.3854,-1.3873,-1.3901,-1.3921,-1.3945,-1.398,-1.4008,-1.4025,-1.4054,-1.4072,-1.4072,-1.4079,-1.4078,-1.4081,-1.4036,-1.4027,-1.4079,-1.4079,-1.4079,-1.4079,-1.4079,-1.4079,-1.3777,-1.3812,-1.3819,-1.3863,-1.3876,-1.3907,-1.3921,-1.3939,-1.3955,-1.3994,-1.4018,-1.4029,-1.4048,-1.4079,-1.4105,-1.4109,-1.412,-1.4128,-1.4132,-1.409,-1.4084,-1.4079,-1.4071,-1.4131,-1.4131,-1.4175,-1.4175,-1.4176]},{"header":{"parameterUnit":"m.s-1","parameterCategory":1,"la1":30.2991,"la2":30.254,"lo1":-89.0895,"lo2":-89.0444,"dy":0.0017,"dx":0.0017,"nx":28,"ny":28,"refTime":"2024-05-01T03:00:00:Z","depth":0,"parameterNumber":3,"parameterNumberName":"V-component_of_WINDS"},"data":[0,0,0,0,0,0,0,0,0,0,0,0,0,0,0,0,0,0,0,0,0,0,0,0,0,0,0,0,0,0,0,0,0,0,0,0,0,0,0,0,0,0,0,0,0,0,0,0,0,0,0,0,0,0,0,0,0,0,1.0226,1.0226,0,1.0236,1.0236,1.0236,1.0247,1.0247,1.0247,1.0247,1.0256,1.0256,1.0256,0,0,0,0,0,0,0,0,0,0,0,0,0,1.0216,1.0216,1.0226,1.0226,1.0226,1.0236,1.0236,1.0236,1.0247,1.0247,1.0247,1.0247,1.0256,1.0256,1.0256,0,0,0,0,0,0,0,0,0,0,0,0,0,1.0222,1.0216,1.0226,1.0233,1.0233,1.0236,1.0236,1.0236,1.0247,1.0247,1.0247,1.0247,1.0256,1.0256,1.0256,1.0252,0,0,1.0257,1.0257,0,0,0,0,0,0,0,0,1.0222,1.0223,1.0232,1.0232,1.0233,1.024,1.0236,1.0241,1.0247,1.0242,1.0247,1.0248,1.0251,1.0251,1.0252,1.0253,1.0253,1.0257,1.0257,1.0257,1.0257,0,0,0,0,0,0,0,1.0222,1.0222,1.023,1.0232,1.0233,1.0235,1.0236,1.0237,1.0245,1.0242,1.0243,1.0244,1.0251,1.0252,1.0253,1.0253,1.0257,1.0257,1.0257,1.0257,1.0251,1.0251,0,0,0,0,0,0,1.022,1.0222,1.0229,1.023,1.0228,1.0235,1.0236,1.0238,1.0245,1.0246,1.0244,1.0244,1.0252,1.0253,1.0253,1.0249,1.0257,1.0257,1.0257,1.0251,1.0251,1.0251,0,0,0,0,0,0,1.022,1.0221,1.0229,1.0226,1.0228,1.0235,1.0236,1.0238,1.0239,1.0246,1.0247,1.0244,1.0252,1.0253,1.0253,1.0249,1.0257,1.0257,1.0252,1.0251,1.0251,1.0241,0,0,0,0,0,0,1.022,1.0221,1.0219,1.0226,1.0228,1.0229,1.0236,1.0238,1.0239,1.024,1.0246,1.0247,1.0252,1.0252,1.0253,1.025,1.0257,1.0252,1.0251,1.0251,1.0241,1.024,1.0239,0,0,0,0,0,1.0219,1.0216,1.0219,1.022,1.0226,1.0228,1.0229,1.0235,1.0239,1.0238,1.0242,1.0247,1.025,1.0252,1.0253,1.025,1.0252,1.0252,1.0251,1.0242,1.024,1.0239,0,0,0,0,0,0,1.0208,1.0217,1.0221,1.0219,1.0223,1.023,1.0229,1.0233,1.0236,1.0237,1.0244,1.0245,1.0244,1.0247,1.0249,1.0246,1.0252,1.0251,1.0244,1.0243,1.0242,1.0241,1.0257,0,0,0,0,0,1.0205,1.0206,1.0214,1.0212,1.0214,1.0221,1.0222,1.0227,1.0231,1.0232,1.0237,1.024,1.0242,1.0243,1.0244,1.0242,1.0243,1.024,1.0239,1.0238,1.0237,1.0236,1.0235,1.0249,1.0249,1.0249,0,0,1.0199,1.0205,1.0205,1.021,1.0213,1.0214,1.0222,1.0223,1.0224,1.0232,1.0232,1.0236,1.024,1.0239,1.0238,1.0241,1.0234,1.0237,1.0236,1.0236,1.0235,1.0234,1.0233,1.0249,1.0249,1.0249,0,0,1.019,1.0194,1.0193,1.0196,1.0202,1.0206,1.0206,1.0213,1.0216,1.0216,1.0222,1.0223,1.0226,1.0229,1.0231,1.0223,1.0227,1.0223,1.0217,1.0215,1.0214,1.0213,1.021,1.0209,1.0223,1.0223,1.0223,0,1.0182,1.0184,1.0192,1.0192,1.0194,1.0203,1.0201,1.0204,1.021,1.0211,1.0214,1.0218,1.0221,1.0221,1.0219,1.022,1.022,1.0222,1.0214,1.0213,1.0212,1.021,1.0208,1.0222,1.0222,1.0222,1.0222,0,1.0174,1.0176,1.0174,1.018,1.0182,1.0181,1.0189,1.019,1.0194,1.0199,1.0199,1.0203,1.0206,1.0207,1.0211,1.0207,1.0208,1.0213,1.0218,1.021,1.0208,1.0207,1.0221,1.0221,1.0222,1.0222,0,0,1.0157,1.0167,1.0167,1.0169,1.0176,1.0177,1.0177,1.0181,1.0181,1.0185,1.0185,1.0188,1.0192,1.0194,1.0199,1.0198,1.0191,1.0202,1.0202,1.02,1.0187,1.0183,1.0182,1.0194,1.0194,1.0194,1.0186,0,1.0148,1.0149,1.0156,1.0155,1.0156,1.0165,1.0165,1.0169,1.0173,1.0175,1.0179,1.0181,1.0186,1.0188,1.0187,1.0192,1.0188,1.0193,1.0194,1.0194,1.0192,1.018,1.0177,1.0169,1.0185,1.0185,1.0185,0,1.0138,1.0142,1.0141,1.0148,1.0149,1.0149,1.0153,1.0154,1.0159,1.0162,1.0165,1.017,1.0171,1.0176,1.0177,1.0179,1.0181,1.0183,1.0183,1.0183,1.0189,1.018,1.0167,1.0165,1.0184,1.0184,1.0184,0,1.0125,1.013,1.013,1.0132,1.0141,1.0141,1.0144,1.0149,1.0151,1.0154,1.0155,1.0159,1.016,1.0162,1.0169,1.0172,1.0168,1.0174,1.0171,1.0171,1.0169,1.0169,1.0156,1.0171,1.0171,1.0171,1.0171,0,1.0115,1.0114,1.0125,1.0125,1.0124,1.0132,1.0131,1.0135,1.014,1.0141,1.0148,1.0149,1.0157,1.0158,1.0163,1.0163,1.0164,1.0166,1.0167,1.0165,1.0165,1.0166,1.0166,1.017,1.017,1.017,1.017,0,1.01,1.0107,1.0108,1.0116,1.0118,1.0117,1.0124,1.0125,1.013,1.0131,1.0131,1.0139,1.0141,1.0148,1.0151,1.0155,1.0153,1.0155,1.0151,1.0152,1.0148,1.0148,1.0134,1.0132,1.0149,1.0148,1.0148,0,1.0093,1.0092,1.0101,1.0102,1.0105,1.0107,1.0109,1.0117,1.0119,1.0125,1.0124,1.0127,1.013,1.0133,1.0139,1.0141,1.0144,1.0139,1.0144,1.0142,1.0144,1.0143,1.0143,1.0137,1.0137,1.0137,1.0137,0,1.0079,1.0082,1.0085,1.0089,1.0092,1.0095,1.0099,1.01,1.0109,1.011,1.0113,1.0115,1.0119,1.0122,1.0126,1.0129,1.0134,1.0135,1.0135,1.0132,1.013,1.0131,1.0147,1.0135,1.0136,1.0136,1.0136,1.0136,1.0067,1.0067,1.0073,1.0076,1.008,1.0084,1.0085,1.009,1.0093,1.0097,1.0101,1.0103,1.0108,1.0114,1.0117,1.0119,1.0122,1.0121,1.012,1.012,1.0119,1.013,1.0119,1.012,1.012,1.012,1.012,0,1.0053,1.0058,1.0061,1.0066,1.0069,1.0074,1.0079,1.008,1.0082,1.0087,1.0089,1.0092,1.0095,1.0101,1.0105,1.0105,1.0107,1.0105,1.0105,1.0106,1.0116,1.0116,1.0103,1.0103,1.0103,1.0103,1.0103,1.0103,1.0047,1.0047,1.0052,1.0054,1.0059,1.0061,1.0063,1.0067,1.007,1.0073,1.0076,1.008,1.0085,1.0089,1.0092,1.0093,1.0094,1.0091,1.0094,1.0103,1.0105,1.0106,1.0107,1.0091,1.0091,1.0083,1.0083,1.0083]}]]